TimeCST,TemperatureF,Dew PointF,Humidity,Sea Level PressureIn,VisibilityMPH,Wind Direction,Wind SpeedMPH,Gust SpeedMPH,PrecipitationIn,Events,Conditions,WindDirDegrees,DateUTC
12:53 AM,51.1,44.1,77,30.03,10.0,NNW,13.8,21.9,N/A,,Clear,340,2013-02-19 06:53:00
1:53 AM,48.0,43.0,83,30.05,10.0,NNW,9.2,-,N/A,,Clear,340,2013-02-19 07:53:00
2:53 AM,44.1,39.0,82,30.09,10.0,NNW,4.6,-,N/A,,Clear,340,2013-02-19 08:53:00
3:53 AM,43.0,37.9,82,30.11,10.0,North,8.1,-,N/A,,Clear,350,2013-02-19 09:53:00
4:53 AM,44.1,37.0,76,30.15,10.0,North,13.8,-,N/A,,Clear,350,2013-02-19 10:53:00
5:53 AM,41.0,36.0,82,30.19,10.0,North,10.4,-,N/A,,Clear,350,2013-02-19 11:53:00
6:53 AM,39.0,34.0,82,30.22,10.0,North,9.2,-,N/A,,Clear,350,2013-02-19 12:53:00
7:53 AM,41.0,35.1,79,30.26,10.0,North,9.2,-,N/A,,Clear,350,2013-02-19 13:53:00
8:53 AM,44.1,34.0,68,30.28,10.0,North,13.8,-,N/A,,Clear,360,2013-02-19 14:53:00
9:53 AM,46.9,34.0,61,30.30,10.0,North,12.7,-,N/A,,Clear,350,2013-02-19 15:53:00
10:53 AM,48.9,33.1,54,30.32,10.0,North,12.7,-,N/A,,Clear,360,2013-02-19 16:53:00
12:53 PM,53.1,32.0,45,30.30,10.0,NW,8.1,-,N/A,,Clear,320,2013-02-19 18:53:00
1:53 PM,54.0,32.0,43,30.29,10.0,NW,10.4,-,N/A,,Clear,320,2013-02-19 19:53:00
2:53 PM,54.0,28.9,38,30.30,10.0,NNW,10.4,-,N/A,,Clear,330,2013-02-19 20:53:00
3:53 PM,54.0,30.9,41,30.29,10.0,North,12.7,17.3,N/A,,Clear,350,2013-02-19 21:53:00
4:53 PM,51.1,30.0,44,30.27,10.0,North,10.4,-,N/A,,Clear,360,2013-02-19 22:53:00
6:53 PM,43.0,34.0,71,30.29,10.0,NE,3.5,-,N/A,,Clear,40,2013-02-20 00:53:00
7:53 PM,42.1,32.0,67,30.29,10.0,ENE,4.6,-,N/A,,Clear,60,2013-02-20 01:53:00
8:53 PM,39.0,32.0,76,30.30,10.0,NE,3.5,-,N/A,,Clear,50,2013-02-20 02:53:00
9:53 PM,39.9,32.0,73,30.31,10.0,Calm,Calm,-,N/A,,Clear,0,2013-02-20 03:53:00
10:53 PM,37.0,33.1,86,30.30,10.0,Calm,Calm,-,N/A,,Clear,0,2013-02-20 04:53:00
11:53 PM,36.0,32.0,86,30.31,10.0,Calm,Calm,-,N/A,,Clear,0,2013-02-20 05:53:00